Regional Weather Roundup
Issued by NWS

Home | Current Version | Previous Version | Graphics & Text | Print | Product List | Glossary On
Versions: 1 2 3 4 5 6 7 8 9 10 11 12 13 14 15 16 17 18 19 20 21 22 23 24 25 26 27 28 29 30 31 32 33 34 35 36 37 38 39 40 41 42 43 44 45 46 47 48 49 50
000
ASUS43 KDMX 210607
RWRIA

WEATHER ROUNDUP FOR IOWA
NATIONAL WEATHER SERVICE DES MOINES IA
1200 AM CST FRI NOV 21 2014

NOTE: "FAIR" INDICATES FEW OR NO CLOUDS BELOW 12,000 FEET WITH NO
SIGNIFICANT WEATHER AND/OR OBSTRUCTIONS TO VISIBILITY.

* - THESE STATIONS ARE NOT NWS STATIONS...THUS NOT UNDER NWS
QUALITY CONTROL.  THEY ALSO DO NOT REPORT WEATHER SUCH
AS PRECIPITATION OR FOG.

IAZ001>003-012>014-020>022-031>034-043>046-210700-
   NORTHWEST IOWA

CITY           SKY/WX    TMP DP  RH WIND       PRES   REMARKS
CARROLL *      CLEAR      5   1  85 CALM      30.28R
CHEROKEE *     PTCLDY     6   5  94 CALM      30.25S
DENISON *      CLEAR     14   9  79 E6        30.24R WCI   5
LE MARS *      CLEAR     12   9  85 VRB3      30.24R
ORANGE CITY *  CLEAR     12   9  85 SE3       30.21R
SHELDON *      CLEAR      5   1  85 SE5       30.21R WCI  -4
SIOUX CITY     CLEAR     17  10  74 SE10      30.24R WCI   5
6HR MIN TEMP:  11; 6HR MAX TEMP:  22;

SPENCER        PTCLDY     1  -4  79 E3        30.23S
6HR MIN TEMP:   0; 6HR MAX TEMP:  10;

STORM LAKE *   CLEAR      9   5  85 SE9       30.24R WCI  -5
$$

IAZ055>058-069>071-079>083-090>094-210700-
   SOUTHWEST IOWA

CITY           SKY/WX    TMP DP  RH WIND       PRES   REMARKS
ATLANTIC *     PTCLDY    10   7  85 CALM      30.28R
AUDUBON *      CLEAR      7   1  78 CALM      30.27R
CLARINDA *     CLEAR     12  12 100 CALM      30.31S
COUNCIL BLFS * CLEAR     18  14  86 SE6       30.24S WCI   9
CRESTON *      CLEAR     12   9  85 E8        30.28R WCI   1
HARLAN  *      CLEAR     12   9  85 CALM      30.31R
LAMONI         PTCLDY    17  12  80 E5        30.29R WCI  10
6HR MIN TEMP:  14; 6HR MAX TEMP:  24;

RED OAK *      CLEAR     14  12  92 CALM      30.29R
SHENANDOAH *   CLEAR     16  14  93 E5        30.29S WCI   9
$$

IAZ047>049-059>061-072>074-084-210700-
   CENTRAL IOWA

CITY           SKY/WX    TMP DP  RH WIND       PRES   REMARKS
AMES           PTCLDY     7   3  84 CALM      30.31S
6HR MIN TEMP:   5; 6HR MAX TEMP:  19;

ANKENY *       CLEAR     10   7  85 CALM      30.32S
CHARITON *     CLEAR     16  10  79 E6        30.30S WCI   7
DES MOINES     PTCLDY    19  10  68 SE5       30.32R WCI  12
6HR MIN TEMP:  17; 6HR MAX TEMP:  24;

GRINNELL*      PTCLDY    10   7  85 CALM      30.32R
KNOXVILLE *    CLEAR     16   9  73 CALM      30.31R
MARSHALLTOWN   PTCLDY     5   1  83 CALM      30.32R
6HR MIN TEMP:   3; 6HR MAX TEMP:  16;

PELLA *        PTCLDY    14   9  79 E3        30.33S
PERRY *          N/A      9   5  85 SE3       30.30S
$$

IAZ004>006-015-016-023>025-035-036-210700-
   NORTH CENTRAL IOWA

CITY           SKY/WX    TMP DP  RH WIND       PRES   REMARKS
ALGONA *       CLEAR      5   1  85 S8        30.27R WCI  -8
CLARION *      CLEAR      1  -2  85 S6        30.29R WCI -10
ESTHERVILLE    PTCLDY     1  -2  87 S8        30.23S WCI -13
6HR MIN TEMP:  -2; 6HR MAX TEMP:  10;

FORT DODGE *   PTCLDY     5   1  85 CALM      30.29R
MASON CITY     CLEAR      0  -3  87 S3        30.29R
6HR MIN TEMP:  -2; 6HR MAX TEMP:  13;

FOREST CITY *  CLEAR      1  -2  85 S3        30.26S
IOWA FALLS *     N/A      3   0  85 S7        30.31R WCI  -9
$$

IAZ007>011-017>019-026>030-037>042-050>054-066-210700-
   NORTHEAST IOWA

CITY           SKY/WX    TMP DP  RH WIND       PRES   REMARKS
CEDAR RAPIDS   PTCLDY     8   4  83 CALM      30.33R
6HR MIN TEMP:   6; 6HR MAX TEMP:  14;

CHARLES CITY * CLEAR      5   0  78 CALM      30.29S
CLINTON *      PTCLDY     3   0  85 W8        30.37R WCI -10
DECORAH *      PTCLDY     3   0  85 CALM      30.28R
DUBUQUE        PTCLDY     3   0  87 CALM      30.31R
6HR MIN TEMP:   3; 6HR MAX TEMP:  15;

MONTICELLO *   CLEAR      5   0  78 CALM      30.35R
OELWEIN *      CLEAR      3   0  85 CALM      30.31S
WATERLOO         N/A      1  -3  83 CALM      30.33R
6HR MIN TEMP:   0; 6HR MAX TEMP:  16;

$$

IAZ064-065-067-068-078-210700-
   EAST CENTRAL IOWA

CITY           SKY/WX    TMP DP  RH WIND       PRES   REMARKS
DAVENPORT      PTCLDY     7   2  80 NW5       30.36R WCI  -2
6HR MIN TEMP:   4; 6HR MAX TEMP:  18;

IOWA CITY      PTCLDY    11   7  84 CALM      30.37R
6HR MIN TEMP:  10; 6HR MAX TEMP:  21;

MT. PLEASANT * PTCLDY    13   8  78 N7        30.35R WCI   3
MUSCATINE *    CLEAR     16   9  73 CALM      30.38R
QUAD CITIES    PTCLDY    16   7  67 NW5       30.37R WCI   9
6HR MIN TEMP:  10; 6HR MAX TEMP:  22;

$$

IAZ062-063-075>077-085>089-095>099-210700-
   SOUTHEAST IOWA

CITY           SKY/WX    TMP DP  RH WIND       PRES   REMARKS
BURLINGTON     PTCLDY    15   9  76 N7        30.34R WCI   5
6HR MIN TEMP:  15; 6HR MAX TEMP:  25;

FAIRFIELD *    CLEAR     12   5  73 NE6       30.34R WCI   3
FORT MADISON * CLEAR     18  12  79 CALM      30.35R
KEOKUK *       CLEAR     18  12  79 CALM      30.34R
OSKALOOSA *      N/A     11   6  82 E6        30.33R WCI   1
CENTERVILLE *  CLEAR     14  10  85 E5        30.33R WCI   6
OTTUMWA        MOCLDY    15   7  70 E6        30.33R WCI   6
6HR MIN TEMP:  13; 6HR MAX TEMP:  20;

WASHINGTON *   CLEAR     14  10  85 N8        30.35R WCI   3
$$

ABBREVIATIONS USED IN REMARKS
   TC - TEMPERATURES IN CELSIUS
  WCI - WIND CHILL INDEX
   HX - HEAT INDEX
  VSB - VISIBILITY
$$



USA.gov is the U.S. government's official web portal to all federal, state and local government web resources and services.